User: anonymous
Location: Unspecified
(0.0000°N, 0.0000°E)
Time: 21:24:51
(UTC+00:00)
Language:

NOAA 17 - Orbit

View from above orbital plane
View from above orbital plane
View from above satellite
View from above satellite

Ground track
Ground track

The orbit data is extracted from the following two-line orbital elements,

1 27453U 02032A   14114.50027891  .00000222  00000-0  11265-3 0  5575
2 27453 098.3129 117.0423 0010843 337.4428 185.2004 14.24738872615042
Epoch (UTC): 24 April 2014 12:00:24
Eccentricity: 0.0010843
inclination: 98.3129°
perigee height: 801 km
apogee height: 817 km
right ascension of ascending node: 117.0423°
argument of perigee: 337.4428°
revolutions per day: 14.24738872
mean anomaly at epoch: 185.2004°
orbit number at epoch: 61504

The dashed part of the orbit path shows where the satellite is in the earth's shadow,  

DLR